K7AEL Weather Reports


time (UTC)temp
C
wind
direction
speed
KPH
gust
KPH
rain 1hr
cm
rain 24hr
cm
rain mn
cm
humidity
%
barometer
mb
20260506070924 15 272 0.0 0.0 0.00 0.00 0.00 47 1015.5
20260506070421 15 236 0.0 0.0 0.00 0.00 0.00 47 1015.6
20260506062359 16 205 0.0 1.6 0.00 0.46 0.46 43 1015.4
20260506061854 17 215 0.0 1.6 0.00 0.46 0.46 43 1015.3
20260506061351 17 206 0.0 1.6 0.00 0.46 0.46 42 1015.2
20260506060849 17 197 0.0 0.0 0.00 0.46 0.46 42 1015.3
20260506060347 17 207 0.0 1.6 0.00 0.46 0.46 41 1015.3
20260506051319 18 263 3.2 3.2 0.00 0.46 0.46 40 1015.0
20260506050817 18 0 4.8 9.7 0.00 0.46 0.46 38 1015.1
20260506050314 18 312 3.2 6.4 0.00 0.46 0.46 38 1014.9
20260506044804 18 305 4.8 6.4 0.00 0.46 0.46 39 1014.7
20260506044302 18 249 1.6 4.8 0.00 0.46 0.46 40 1014.8
20260506043759 18 236 3.2 4.8 0.00 0.46 0.46 40 1014.5
20260506043256 18 234 1.6 1.6 0.00 0.46 0.46 40 1014.7
20260506042755 18 236 1.6 3.2 0.00 0.46 0.46 40 1014.5
20260506042254 19 198 0.0 1.6 0.00 0.46 0.46 39 1014.5
20260506041751 19 225 1.6 4.8 0.00 0.46 0.46 39 1014.4
20260506041248 19 231 1.6 3.2 0.00 0.46 0.46 39 1014.2
20260506040745 19 235 1.6 3.2 0.00 0.46 0.46 39 1014.1
20260506040242 19 256 4.8 9.7 0.00 0.46 0.46 39 1014.1
20260506035739 20 246 3.2 6.4 0.00 0.46 0.46 39 1014.1
20260506035235 20 306 3.2 4.8 0.00 0.46 0.46 38 1013.9
20260506034727 20 219 1.6 11.3 0.00 0.46 0.46 37 1013.8
20260506034224 20 315 6.4 11.3 0.00 0.46 0.46 37 1013.6
20260506033722 20 259 3.2 3.2 0.00 0.46 0.46 41 1013.6
20260506033219 20 190 0.0 4.8 0.00 0.46 0.46 41 1013.5
20260506032715 20 208 3.2 6.4 0.00 0.46 0.46 41 1013.6
20260506032212 20 246 3.2 9.7 0.00 0.46 0.46 42 1013.4
20260506031709 20 283 3.2 9.7 0.00 0.46 0.46 41 1013.2
20260506031206 20 217 3.2 4.8 0.00 0.46 0.46 40 1013.3
20260506030705 20 200 0.0 3.2 0.00 0.46 0.46 38 1012.8
20260506030202 20 302 4.8 9.7 0.00 0.46 0.46 37 1012.9
20260506025658 20 277 3.2 4.8 0.00 0.46 0.46 37 1012.8
20260506025154 20 194 0.0 1.6 0.00 0.46 0.46 37 1012.8
20260506024652 20 203 0.0 4.8 0.00 0.46 0.46 37 1012.8
20260506024148 20 198 1.6 3.2 0.00 0.46 0.46 37 1012.6
20260506023644 20 185 3.2 4.8 0.00 0.46 0.46 37 1012.6
20260506023142 20 242 1.6 6.4 0.00 0.46 0.46 36 1012.4
20260506022639 20 303 3.2 6.4 0.00 0.46 0.46 36 1012.5
20260506022136 20 203 3.2 4.8 0.00 0.46 0.46 36 1012.3
20260506021634 20 231 1.6 6.4 0.00 0.46 0.46 36 1012.3
20260506021131 21 191 0.0 9.7 0.00 0.46 0.46 36 1012.1
20260506020628 21 251 4.8 6.4 0.00 0.46 0.46 35 1011.9
20260506020126 21 222 3.2 12.9 0.00 0.46 0.46 35 1012.0
20260506015623 21 181 3.2 11.3 0.00 0.46 0.46 34 1011.9
20260506015120 21 290 3.2 9.7 0.00 0.46 0.46 33 1012.0
20260506014618 21 240 8.0 9.7 0.00 0.46 0.46 32 1011.9
20260506014112 21 239 4.8 12.9 0.00 0.46 0.46 31 1012.0
20260506013611 21 159 4.8 6.4 0.00 0.46 0.46 30 1011.8
20260506013108 22 179 3.2 14.5 0.00 0.46 0.46 30 1011.8
20260506012604 22 192 4.8 11.3 0.00 0.46 0.46 29 1011.8
20260506012100 22 304 6.4 12.9 0.00 0.46 0.46 29 1011.9
20260506011559 22 286 8.0 14.5 0.00 0.46 0.46 29 1011.6
20260506011054 22 159 8.0 17.7 0.00 0.46 0.46 29 1011.6
20260506010548 22 232 6.4 11.3 0.00 0.46 0.46 29 1011.7
20260506010044 22 214 3.2 17.7 0.00 0.46 0.46 30 1011.7
20260506005542 22 285 4.8 24.1 0.00 0.46 0.46 30 1011.7
20260506005037 23 176 6.4 16.1 0.00 0.46 0.46 30 1011.4
20260506004535 23 208 3.2 17.7 0.00 0.46 0.46 30 1011.4
20260506004032 23 169 4.8 16.1 0.00 0.46 0.46 30 1011.4
20260506003528 23 223 1.6 12.9 0.00 0.46 0.46 30 1011.3
20260506003024 23 176 4.8 14.5 0.00 0.46 0.46 30 1011.2
20260506002520 23 280 4.8 16.1 0.00 0.46 0.46 29 1011.2
20260506002016 24 195 8.0 16.1 0.00 0.46 0.46 29 1011.2
20260506001513 24 235 4.8 11.3 0.00 0.46 0.46 28 1011.3
20260506001010 24 190 6.4 12.9 0.00 0.46 0.46 27 1011.0
20260506000508 25 309 12.9 24.1 0.00 0.46 0.46 27 1011.0
20260506000005 25 298 4.8 11.3 0.00 0.46 0.46 28 1010.9
20260505235503 25 282 4.8 14.5 0.00 0.46 0.46 28 1010.9
20260505234959 24 221 3.2 25.7 0.00 0.46 0.46 27 1011.0
20260505234456 25 193 11.3 16.1 0.00 0.46 0.46 27 1011.0
20260505233953 25 262 1.6 16.1 0.00 0.46 0.46 27 1010.9
20260505233451 25 183 4.8 12.9 0.00 0.46 0.46 27 1010.8
20260505232948 25 216 3.2 12.9 0.00 0.46 0.46 26 1010.7
20260505232446 26 284 11.3 20.9 0.00 0.46 0.46 26 1010.9
20260505231943 25 194 6.4 14.5 0.00 0.46 0.46 25 1010.9
20260505231440 25 291 6.4 16.1 0.00 0.46 0.46 27 1010.6
20260505230938 25 177 6.4 16.1 0.00 0.46 0.46 27 1010.9
20260505230436 25 178 6.4 14.5 0.00 0.46 0.46 28 1010.9
20260505225932 25 269 14.5 17.7 0.00 0.46 0.46 29 1010.8
20260505225429 25 219 8.0 16.1 0.00 0.46 0.46 29 1010.8
20260505224925 25 343 11.3 14.5 0.00 0.46 0.46 29 1010.8
20260505224422 26 238 3.2 11.3 0.00 0.46 0.46 28 1010.9
20260505223919 25 268 4.8 16.1 0.00 0.46 0.46 29 1011.0
20260505223416 24 274 6.4 9.7 0.00 0.46 0.46 29 1011.0
20260505222912 24 210 9.7 27.4 0.00 0.46 0.46 30 1011.2
20260505222408 24 267 8.0 25.7 0.00 0.46 0.46 29 1011.1
20260505221905 24 271 6.4 11.3 0.00 0.46 0.46 31 1011.3
20260505221402 25 195 4.8 24.1 0.00 0.46 0.46 31 1011.3
20260505220859 25 187 1.6 11.3 0.00 0.46 0.46 30 1011.2
20260505220356 25 187 3.2 12.9 0.00 0.46 0.46 30 1011.3
20260505215853 24 201 4.8 9.7 0.00 0.46 0.46 31 1011.4
20260505215351 25 172 8.0 12.9 0.00 0.46 0.46 31 1011.4
20260505214849 25 219 4.8 12.9 0.00 0.46 0.46 30 1011.7
20260505214346 25 151 3.2 14.5 0.00 0.46 0.46 30 1011.4
20260505213843 25 229 8.0 11.3 0.00 0.46 0.46 30 1011.8
20260505213342 24 303 1.6 6.4 0.00 0.46 0.46 31 1011.6
20260505212837 25 148 6.4 12.9 0.00 0.46 0.46 30 1011.7
20260505212334 25 246 6.4 20.9 0.00 0.46 0.46 32 1012.0
20260505211830 24 12 6.4 12.9 0.00 0.46 0.46 33 1011.8
20260505211328 23 211 0.0 4.8 0.00 0.46 0.46 36 1012.0
20260505210824 23 5 6.4 12.9 0.00 0.46 0.46 37 1012.1
20260505210321 23 263 12.9 14.5 0.00 0.46 0.46 41 1012.2
20260505205818 23 145 4.8 12.9 0.00 0.46 0.46 42 1012.3
20260505205317 24 273 8.0 14.5 0.00 0.46 0.46 40 1011.9
20260505204813 23 294 9.7 16.1 0.00 0.46 0.46 40 1012.2
20260505204311 25 224 4.8 9.7 0.00 0.46 0.46 41 1012.1
20260505203808 25 340 9.7 12.9 0.00 0.46 0.46 41 1012.2
20260505203305 25 208 4.8 14.5 0.00 0.46 0.46 42 1012.3
20260505202801 25 280 3.2 6.4 0.00 0.46 0.46 41 1012.3
20260505202257 25 259 6.4 16.1 0.00 0.46 0.46 38 1012.2
20260505201754 24 282 11.3 12.9 0.00 0.46 0.46 40 1012.3
20260505201251 24 334 12.9 16.1 0.00 0.46 0.46 41 1012.4
20260505200750 23 229 1.6 16.1 0.00 0.46 0.46 43 1012.5
20260505200246 23 201 1.6 9.7 0.00 0.46 0.46 43 1012.4
20260505195741 24 226 3.2 9.7 0.00 0.46 0.46 43 1012.5
20260505195239 23 209 1.6 4.8 0.00 0.46 0.46 44 1012.5
20260505194736 23 264 4.8 12.9 0.00 0.46 0.46 46 1012.5
20260505194233 23 227 4.8 11.3 0.00 0.46 0.46 47 1012.7
20260505193728 23 215 3.2 3.2 0.00 0.46 0.46 46 1012.6
20260505193226 23 317 6.4 9.7 0.00 0.46 0.46 48 1012.6
20260505192725 22 210 4.8 9.7 0.00 0.46 0.46 50 1012.6
20260505192222 22 266 8.0 14.5 0.00 0.46 0.46 50 1012.7
20260505191720 22 273 8.0 14.5 0.00 0.46 0.46 50 1012.6
20260505191218 22 201 6.4 11.3 0.00 0.46 0.46 50 1012.9
20260505190714 22 180 3.2 4.8 0.00 0.46 0.46 51 1012.9
20260505190214 22 218 3.2 4.8 0.00 0.46 0.46 52 1012.9
20260505185711 22 40 4.8 4.8 0.00 0.46 0.46 52 1013.0
20260505185207 21 215 1.6 6.4 0.00 0.46 0.46 54 1013.2
20260505184703 21 221 1.6 6.4 0.00 0.46 0.46 57 1013.4
20260505184201 20 293 3.2 9.7 0.00 0.46 0.46 57 1013.2
20260505183657 21 43 4.8 6.4 0.00 0.46 0.46 56 1013.3
20260505183155 21 331 4.8 6.4 0.00 0.46 0.46 54 1013.3
20260505182651 21 192 3.2 4.8 0.00 0.46 0.46 54 1013.5
20260505182148 21 130 6.4 6.4 0.00 0.46 0.46 56 1013.6
20260505181644 21 199 1.6 4.8 0.00 0.46 0.46 57 1013.5
20260505181142 20 189 4.8 4.8 0.00 0.46 0.46 57 1013.6
20260505180638 20 219 1.6 3.2 0.00 0.46 0.46 57 1013.6
20260505180136 21 226 1.6 1.6 0.00 0.46 0.46 57 1013.6
20260505175631 20 198 0.0 1.6 0.00 0.46 0.46 56 1013.7
20260505175128 20 190 1.6 4.8 0.00 0.46 0.46 58 1013.8
20260505174625 19 198 0.0 1.6 0.00 0.46 0.46 61 1013.8
20260505174121 20 271 3.2 6.4 0.00 0.46 0.46 61 1013.8
20260505173618 19 194 1.6 6.4 0.00 0.46 0.46 62 1014.0
20260505173115 19 199 0.0 4.8 0.00 0.46 0.46 61 1014.0
20260505172612 19 254 3.2 9.7 0.00 0.46 0.46 62 1013.9
20260505172109 20 179 3.2 9.7 0.00 0.46 0.46 61 1014.0
20260505171603 20 11 6.4 6.4 0.00 0.46 0.46 60 1013.9
20260505171101 20 244 1.6 6.4 0.00 0.46 0.46 60 1013.9
20260505170557 20 195 1.6 3.2 0.00 0.46 0.46 59 1013.9
20260505170054 20 222 1.6 3.2 0.00 0.46 0.46 60 1013.9
20260505165549 20 223 4.8 4.8 0.00 0.46 0.46 59 1013.8
20260505165045 20 269 4.8 4.8 0.00 0.46 0.46 59 1014.0
20260505164541 19 195 1.6 4.8 0.00 0.46 0.46 60 1013.9
20260505164039 20 265 3.2 4.8 0.00 0.46 0.46 60 1014.1
20260505163537 19 150 0.0 4.8 0.00 0.46 0.46 62 1013.9
20260505163033 19 238 3.2 3.2 0.00 0.46 0.46 61 1013.8
20260505162527 19 192 3.2 4.8 0.00 0.46 0.46 62 1013.9
20260505162024 18 178 1.6 1.6 0.00 0.46 0.46 65 1013.9
20260505161520 18 187 1.6 9.7 0.00 0.46 0.46 67 1013.9
20260505161017 18 222 1.6 4.8 0.00 0.46 0.46 68 1014.1
20260505160516 17 262 3.2 6.4 0.00 0.46 0.46 69 1014.0
20260505152946 17 203 0.0 1.6 0.00 0.46 0.46 75 1013.8
20260505152443 17 244 3.2 3.2 0.00 0.46 0.46 75 1013.7
20260505151938 17 201 1.6 1.6 0.00 0.46 0.46 78 1013.7
20260505151434 17 198 1.6 1.6 0.00 0.46 0.46 82 1013.7
20260505150931 16 206 1.6 1.6 0.00 0.46 0.46 84 1013.7
20260505150427 16 199 1.6 3.2 0.00 0.46 0.46 85 1013.7
20260505140352 15 226 0.0 0.0 0.00 0.46 0.46 92 1013.7
20260505124806 14 206 0.0 0.0 0.00 0.46 0.46 93 1012.7
20260505124303 14 203 0.0 0.0 0.00 0.46 0.46 93 1012.6
20260505123759 14 197 0.0 0.0 0.00 0.46 0.46 93 1012.6
20260505123255 14 198 0.0 0.0 0.00 0.46 0.46 93 1012.4
20260505122751 15 200 0.0 0.0 0.00 0.46 0.46 92 1012.5
20260505122249 15 199 0.0 0.0 0.00 0.46 0.46 92 1012.5
20260505121745 15 203 0.0 0.0 0.18 0.46 0.46 92 1012.6
20260505121242 15 203 0.0 0.0 0.18 0.46 0.46 92 1012.7
20260505120738 15 205 0.0 0.0 0.00 0.43 0.43 92 1012.8
20260505120235 15 210 0.0 0.0 0.00 0.43 0.43 92 1012.5
20260505115734 14 199 0.0 0.0 0.00 0.43 0.43 92 1012.6
20260505115231 14 191 1.6 1.6 0.00 0.43 0.43 92 1012.5
20260505114729 14 187 0.0 0.0 0.00 0.43 0.43 92 1012.4
20260505114224 14 185 0.0 6.4 0.00 0.43 0.43 92 1012.3
20260505113721 14 164 0.0 6.4 0.00 0.43 0.43 93 1012.2
20260505113217 14 192 0.0 4.8 0.00 0.43 0.43 93 1012.3
20260505112714 14 195 0.0 3.2 0.00 0.43 0.43 93 1012.4
20260505112212 14 189 1.6 3.2 0.00 0.43 0.43 93 1012.8
20260505111706 14 185 1.6 3.2 0.00 0.43 0.43 93 1012.7
20260505111202 14 176 1.6 6.4 0.00 0.43 0.43 92 1012.5
20260505110658 14 181 1.6 4.8 0.13 0.43 0.43 92 1012.6
20260505110156 14 143 4.8 11.3 0.13 0.43 0.43 92 1012.4
20260505102131 15 104 4.8 12.9 0.30 0.38 0.38 92 1012.8
20260505101630 15 158 4.8 14.5 0.18 0.36 0.36 91 1013.3
20260505101126 15 111 9.7 14.5 0.00 0.33 0.33 90 1013.7
20260505100622 15 140 3.2 9.7 0.00 0.33 0.33 90 1013.9
20260505100119 15 144 11.3 17.7 0.00 0.33 0.33 90 1013.8
20260505095615 15 122 6.4 17.7 0.00 0.33 0.33 89 1013.5
20260505095112 15 106 6.4 12.9 0.00 0.33 0.33 90 1013.5
20260505094608 15 124 11.3 14.5 0.00 0.33 0.33 91 1013.3
20260505094105 15 97 11.3 17.7 0.18 0.33 0.33 92 1013.3
20260505093601 15 132 12.9 16.1 0.18 0.33 0.33 92 1013.3
20260505093058 15 82 6.4 16.1 0.00 0.30 0.30 92 1013.4
20260505092556 15 123 4.8 9.7 0.00 0.30 0.30 92 1013.6
20260505092054 15 135 4.8 11.3 0.00 0.30 0.30 92 1013.7
20260505091550 15 180 3.2 11.3 0.00 0.30 0.30 92 1013.6
20260505091049 15 170 3.2 11.3 0.00 0.30 0.30 92 1013.8
20260505090547 14 148 6.4 16.1 0.00 0.30 0.30 92 1013.9
20260505090044 15 92 6.4 11.3 0.00 0.30 0.30 93 1013.5
20260505085542 15 115 3.2 9.7 0.00 0.30 0.30 93 1013.6
20260505085040 14 189 6.4 11.3 0.00 0.30 0.30 94 1013.8
20260505084538 15 126 3.2 11.3 0.13 0.30 0.30 94 1014.0
20260505084036 14 136 3.2 9.7 0.13 0.30 0.30 94 1014.0
20260505083532 15 155 3.2 4.8 0.18 0.28 0.28 94 1013.9
20260505083029 15 131 4.8 12.9 0.18 0.28 0.28 94 1014.4
20260505082525 15 98 9.7 11.3 0.13 0.25 0.25 94 1014.5
20260505082022 15 144 3.2 6.4 0.30 0.25 0.25 94 1015.0
20260505081518 15 134 6.4 11.3 0.30 0.23 0.23 94 1015.2
20260505081015 15 174 3.2 9.7 0.13 0.20 0.20 93 1015.0
20260505080511 15 136 3.2 9.7 0.18 0.18 0.18 93 1015.3
20260505080008 15 205 6.4 11.3 0.18 0.18 0.18 93 1015.5
20260505075504 15 115 6.4 9.7 0.00 0.15 0.15 93 1015.7
20260505075001 15 199 3.2 6.4 0.13 0.15 0.15 93 1015.8
20260505074459 15 109 9.7 12.9 0.13 0.15 0.15 93 1015.7
20260505073956 15 163 4.8 11.3 0.18 0.13 0.13 93 1015.7
20260505073453 15 139 6.4 11.3 0.13 0.10 0.10 93 1015.6
20260505072950 15 141 4.8 9.7 0.18 0.08 0.08 93 1015.8
20260505072446 15 121 3.2 6.4 0.30 0.08 0.08 93 1016.0
20260505071942 15 179 0.0 1.6 0.13 0.05 0.05 93 1016.4
20260505071438 15 196 0.0 3.2 0.00 0.03 0.03 92 1016.4